Port Clinton Carl R Keller Fi, OH

5:33 AM EDT on May 27, 2017 (GMT -0400)
Keller

Weather History for KPCW - October, 2013

Change the Weather History Date:

Wednesday, October 16, 2013

  Actual Average (KTTF) Record (KTTF)
Temperature  
Mean Temperature 60 °F -  
Max Temperature 69 °F 61 °F 85 °F (1938)
Min Temperature 50 °F 43 °F 29 °F (1991)
Degree Days  
Heating Degree Days 5    
Growing Degree Days 10 (Base 50)    
Moisture  
Dew Point 56 °F    
Average Humidity 79    
Maximum Humidity 100    
Minimum Humidity 49    
Precipitation  
Precipitation 0.00 in - - ()
Sea Level Pressure  
Sea Level Pressure 29.87 in    
Wind  
Wind Speed 9 mph ()    
Max Wind Speed 20 mph    
Max Gust Speed -    
Visibility 9.7 miles    
Events Rain    
Averages and records for this station are not official NWS values.
T = Trace of Precipitation, MM = Missing Value Source: Averaged Metar Reports

Daily Weather History Graph

Daily Weather History Graph

Search for Another Location

Airport or City:

Trip Planner

Search our weather history database for the weather conditions in past years. The results will help you decide how hot, cold, wet, or windy it might be!

Date:

Astronomy

Oct. 16, 2013 Rise Set
Actual Time 7:44 AM EDT 6:48 PM EDT
Civil Twilight 7:16 AM EDT 7:16 PM EDT
Nautical Twilight 6:44 AM EDT 7:48 PM EDT
Astronomical Twilight 6:12 AM EDT 8:20 PM EDT
Moon 5:28 PM EDT (10/16) 5:09 AM EDT (10/16)
Length of Visible Light 11h 59m
Length of Day
11h 03m
Waxing Gibbous, 94% of the Moon is Illuminated
Oct 16
Waxing Gibbous
Oct 18
Full
Oct 26
Last Quarter
Nov 3
New
Nov 10
First Quarter

Hourly Weather History & Observations

Time (EDT) Temp. Dew Point Humidity Pressure Visibility Wind Dir Wind Speed Gust Speed Precip Events Conditions
12:13 AM 66.2 °F 62.6 °F 88% 29.88 in 10.0 mi SSW 9.2 mph - N/A   Overcast
12:33 AM 66.2 °F 62.6 °F 88% 29.87 in 10.0 mi SW 10.4 mph - N/A   Mostly Cloudy
12:53 AM 66.2 °F 62.6 °F 88% 29.87 in 9.0 mi SW 10.4 mph - N/A Rain Light Rain
1:13 AM 64.4 °F 62.6 °F 94% 29.87 in 7.0 mi SW 15.0 mph - N/A Rain Light Rain
1:23 AM 64.4 °F 64.4 °F 100% 29.87 in 4.0 mi WSW 10.4 mph - N/A Rain Light Rain
1:53 AM 64.4 °F 62.6 °F 94% 29.87 in 10.0 mi SW 9.2 mph - N/A Rain Light Rain
2:13 AM 64.4 °F 62.6 °F 94% 29.87 in 10.0 mi SW 11.5 mph - N/A Rain Light Rain
2:33 AM 64.4 °F 62.6 °F 94% 29.87 in 10.0 mi SW 10.4 mph - N/A Rain Light Rain
2:53 AM 64.4 °F 62.6 °F 94% 29.87 in 10.0 mi SW 11.5 mph - N/A   Overcast
3:05 AM 64.4 °F 62.6 °F 94% 29.87 in 10.0 mi SW 10.4 mph - N/A   Overcast
3:33 AM 64.4 °F 62.6 °F 94% 29.86 in 10.0 mi SW 8.1 mph - N/A   Scattered Clouds
3:53 AM 64.4 °F 62.6 °F 94% 29.86 in 10.0 mi SW 9.2 mph - N/A   Scattered Clouds
4:04 AM 64.4 °F 62.6 °F 94% 29.86 in 10.0 mi SW 6.9 mph - N/A   Mostly Cloudy
4:33 AM 64.4 °F 62.6 °F 94% 29.86 in 10.0 mi SW 5.8 mph - N/A   Overcast
4:53 AM 64.4 °F 62.6 °F 94% 29.85 in 10.0 mi SW 6.9 mph - N/A   Mostly Cloudy
5:13 AM 64.4 °F 62.6 °F 94% 29.85 in 10.0 mi SSW 5.8 mph - N/A   Mostly Cloudy
5:33 AM 64.4 °F 62.6 °F 94% 29.86 in 10.0 mi SW 4.6 mph - N/A   Mostly Cloudy
5:53 AM 64.9 °F 63.0 °F 93% 29.86 in 10.0 mi West 4.6 mph - N/A   Overcast
6:14 AM 64.4 °F 62.6 °F 94% 29.85 in 10.0 mi WSW 5.8 mph - N/A   Overcast
6:24 AM 64.4 °F 62.6 °F 94% 29.85 in 10.0 mi SSW 4.6 mph - N/A   Overcast
6:53 AM 64.4 °F 62.6 °F 94% 29.85 in 10.0 mi SSW 6.9 mph - N/A   Scattered Clouds
7:13 AM 64.4 °F 62.6 °F 94% 29.85 in 10.0 mi SSW 8.1 mph - N/A   Partly Cloudy
7:33 AM 64.4 °F 62.6 °F 94% 29.84 in 10.0 mi SSW 6.9 mph - N/A   Mostly Cloudy
7:53 AM 64.4 °F 62.6 °F 94% 29.85 in 10.0 mi SSW 6.9 mph - N/A   Partly Cloudy
8:13 AM 64.4 °F 62.6 °F 94% 29.86 in 10.0 mi SW 6.9 mph - N/A   Partly Cloudy
8:30 AM 64.4 °F 62.6 °F 94% 29.86 in 10.0 mi SSW 5.8 mph - N/A   Mostly Cloudy
8:53 AM 64.4 °F 62.6 °F 94% 29.86 in 10.0 mi SW 5.8 mph - N/A   Overcast
9:13 AM 64.4 °F 62.6 °F 94% 29.86 in 10.0 mi SW 5.8 mph - N/A   Overcast
9:33 AM 64.4 °F 62.6 °F 94% 29.86 in 10.0 mi WSW 5.8 mph - N/A   Overcast
9:53 AM 64.9 °F 61.9 °F 90% 29.86 in 10.0 mi West 8.1 mph - N/A   Overcast
10:14 AM 64.4 °F 62.6 °F 94% 29.86 in 9.0 mi WSW 5.8 mph - N/A   Overcast
10:33 AM 64.4 °F 60.8 °F 88% 29.85 in 10.0 mi WSW 9.2 mph - N/A   Overcast
10:53 AM 64.9 °F 59.9 °F 84% 29.85 in 10.0 mi WSW 10.4 mph - N/A   Overcast
11:13 AM 64.4 °F 59.0 °F 83% 29.85 in 10.0 mi West 12.7 mph - N/A   Overcast
11:33 AM 64.4 °F 59.0 °F 83% 29.85 in 10.0 mi West 8.1 mph - N/A   Overcast
11:54 AM 64.9 °F 59.0 °F 81% 29.86 in 10.0 mi WSW 16.1 mph - N/A   Overcast
12:13 PM 64.4 °F 59.0 °F 83% 29.85 in 10.0 mi West 11.5 mph - N/A   Overcast
12:33 PM 64.4 °F 57.2 °F 77% 29.85 in 10.0 mi West 9.2 mph - N/A   Overcast
12:52 PM 65.8 °F 57.9 °F 76% 29.85 in 10.0 mi WSW 16.1 mph - N/A   Mostly Cloudy
1:13 PM 69.8 °F 57.2 °F 64% 29.84 in 3.0 mi West 15.0 mph - N/A   Haze
1:33 PM 68.0 °F 55.4 °F 64% 29.84 in 8.0 mi West 15.0 mph - N/A   Partly Cloudy
1:53 PM 68.9 °F 54.9 °F 61% 29.84 in 9.0 mi West 11.5 mph - N/A   Clear
2:13 PM 68.0 °F 53.6 °F 60% 29.83 in 10.0 mi WSW 17.3 mph - N/A   Clear
2:33 PM 69.8 °F 50.0 °F 49% 29.83 in 10.0 mi West 19.6 mph - N/A   Partly Cloudy
2:53 PM 68.0 °F 50.9 °F 54% 29.83 in 10.0 mi West 13.8 mph - N/A   Partly Cloudy
3:13 PM 68.0 °F 48.2 °F 49% 29.83 in 10.0 mi West 16.1 mph - N/A   Partly Cloudy
3:33 PM 66.2 °F 48.2 °F 52% 29.84 in 10.0 mi West 13.8 mph - N/A   Mostly Cloudy
3:54 PM 65.8 °F 47.8 °F 52% 29.84 in 10.0 mi West 13.8 mph - N/A   Overcast
4:13 PM 66.2 °F 48.2 °F 52% 29.84 in 10.0 mi West 13.8 mph - N/A   Mostly Cloudy
4:33 PM 66.2 °F 48.2 °F 52% 29.84 in 10.0 mi West 13.8 mph - N/A   Scattered Clouds
4:54 PM 65.8 °F 48.9 °F 54% 29.84 in 10.0 mi WNW 13.8 mph - N/A   Partly Cloudy
5:13 PM 64.4 °F 48.2 °F 56% 29.85 in 10.0 mi WSW 13.8 mph - N/A   Clear
5:33 PM 64.4 °F 48.2 °F 56% 29.85 in 10.0 mi WSW 12.7 mph - N/A   Clear
5:53 PM 63.0 °F 47.8 °F 58% 29.85 in 10.0 mi WSW 9.2 mph - N/A   Partly Cloudy
6:13 PM 62.6 °F 48.2 °F 59% 29.86 in 10.0 mi WNW 12.7 mph - N/A   Mostly Cloudy
6:33 PM 62.6 °F 48.2 °F 59% 29.87 in 10.0 mi West 13.8 mph - N/A   Mostly Cloudy
6:53 PM 59.9 °F 46.9 °F 62% 29.87 in 10.0 mi West 11.5 mph - N/A   Partly Cloudy
7:13 PM 59.0 °F 48.2 °F 67% 29.88 in 10.0 mi WNW 12.7 mph - N/A   Clear
7:33 PM 57.2 °F 46.4 °F 67% 29.89 in 10.0 mi WNW 13.8 mph - N/A   Clear
7:53 PM 56.8 °F 46.9 °F 69% 29.89 in 10.0 mi WNW 11.5 mph - N/A   Clear
8:13 PM 57.2 °F 46.4 °F 67% 29.90 in 10.0 mi WNW 11.5 mph - N/A   Clear
8:33 PM 57.2 °F 46.4 °F 67% 29.90 in 10.0 mi WNW 11.5 mph - N/A   Clear
8:53 PM 56.8 °F 47.8 °F 72% 29.91 in 10.0 mi WNW 9.2 mph - N/A   Clear
9:13 PM 55.4 °F 48.2 °F 77% 29.91 in 10.0 mi West 9.2 mph - N/A   Clear
9:33 PM 55.4 °F 48.2 °F 77% 29.92 in 10.0 mi West 8.1 mph - N/A   Clear
9:53 PM 54.9 °F 47.8 °F 77% 29.92 in 10.0 mi West 8.1 mph - N/A   Clear
10:14 PM 55.4 °F 48.2 °F 77% 29.92 in 10.0 mi West 9.2 mph - N/A   Clear
10:33 PM 53.6 °F 46.4 °F 77% 29.92 in 10.0 mi West 10.4 mph - N/A   Clear
10:54 PM 54.0 °F 46.9 °F 77% 29.92 in 10.0 mi West 8.1 mph - N/A   Clear
11:13 PM 53.6 °F 46.4 °F 77% 29.92 in 10.0 mi West 8.1 mph - N/A   Clear
11:33 PM 51.8 °F 46.4 °F 82% 29.92 in 10.0 mi West 6.9 mph - N/A   Clear
11:53 PM 50.9 °F 45.9 °F 83% 29.92 in 10.0 mi West 5.8 mph - N/A   Clear